Location: Arclight Observatory
(36.5667°N, 87.3333°W)
Time: 05:27:20
(UTC-05:00)

ISS - Visible Passes

Search period start: 23 April 2014 00:00
Search period end: 03 May 2014 00:00
Orbit: 413 x 418 km, 51.7° (Epoch: 23 April)

Date Brightness Start Highest point End Pass type
(mag) Time Alt. Az. Time Alt. Az. Time Alt. Az.
23 Apr -2.4 21:15:51 10° WNW 21:19:01 40° SW 21:19:08 40° SW visible
24 Apr -3.3 20:26:56 10° NW 20:30:17 81° SW 20:32:31 19° SE visible
25 Apr -0.7 21:16:09 10° W 21:17:47 13° SW 21:18:49 12° SSW visible
26 Apr -1.3 20:26:15 10° WNW 20:29:01 24° SW 20:31:46 10° S visible
